Location: Unspecified
(40.7945°N, 0.0000°E)
Time: 13:14:49
(UTC+00:00)

Courier 1B - Pass Details

Date: 28 January 2021
Orbit: 962 x 1209 km, 28.3° (Epoch: 07 March)

Event Time Altitude Azimuth Distance (km) Brightness Sun altitude
Rises 02:52:43 0° 255° (WSW) 3,660 - -49.0°
Reaches altitude 10° 02:57:07 10° 228° (SW) 2,689 - -48.3°
Maximum altitude 02:59:44 13° 203° (SSW) 2,491 - -47.8°
Drops below altitude 10° 03:02:21 10° 179° (S) 2,682 - -47.3°
Sets 03:06:44 0° 152° (SSE) 3,640 - -46.5°
